Track ONEWEB-0316 now! 10-day predictions ONEWEB-0316 is classified as:
1 49102U 21075AD 22140.58334491 -.01098156 00000-0 -49064+0 0 9991 2 49102 87.7207 272.4348 0019419 44.9945 263.1237 14.25718418 1307